Flag for Canada Weather past 2 weeks in Richmond Hill, Ontario, Canada

Now
82 °F

Passing clouds.


Feels Like: 84 °F
Forecast: 63 / 73 °F
Wind: 12 mph from Southwest

Location: Toronto Buttonville

Current Time: Jul 22, 2014 at 10:15:26 PM

Latest Report: Jul 22, 2014 at 9:00 PM


Visibility: 15 mi

Pressure: 29.90 "Hg

Humidity: 55%

Dew point: 64 °F

Location of Richmond HillLocation

Historic Weather in Richmond Hill — Graph

°F

Richmond Hill temperature yesterday

Maximum temperature yesterday: 82 °F (at 3:00 PM)
Minimum temperature yesterday: 59 °F (at 3:00 AM)
Average temperature yesterday: 70 °F

Past Weeks' High & Low Weather Summary

 TemperatureHumidityPressure
High84 °F (Jul 12, 4:00 PM)100% (Jul 20, 4:00 AM)30.26 "Hg (Jul 20, 4:00 AM)
Low48 °F (Jul 17, 6:00 AM)33% (Jul 18, 8:00 PM)29.50 "Hg (Jul 8, 4:00 PM)
Average67 °F70%29.99 "Hg
* Reported Jul 7 9:00 PM — Jul 22 9:00 PM, Richmond Hill, Weather by CustomWeather, © 2014

Note: Actual official high and low records may vary slightly from our data, if they occured in-between our weather recording intervals... More about our weather records

Advertising

Richmond Hill weather history for previous 24 hours

 ConditionsComfort  
Time TempWeatherWind HumidityBarometerVisibility
9:00 PM
Jul 22
82 °FPassing clouds.12 mph55%29.90 "Hg15 mi
8:00 PM82 °FPassing clouds.6 mph55%29.93 "Hg15 mi
7:00 PM82 °FSunny.13 mph55%29.95 "Hg15 mi
12:00 PM82 °FPassing clouds.8 mph55%30.06 "Hg15 mi
11:00 AM81 °FPassing clouds.8 mph58%30.07 "Hg15 mi
10:00 AM79 °FSunny.3 mph61%30.10 "Hg12 mi
9:00 AM73 °FSunny.No wind78%30.13 "Hg10 mi
8:00 AM70 °FSunny.No wind83%30.13 "Hg7 mi
7:49 AMN/ASunny.No windN/AN/A7 mi
7:00 AM63 °FFog.No wind100%30.13 "Hg5 mi
6:00 AM61 °FFog.No wind100%30.11 "Hg4 mi
5:00 AM61 °FClear.No wind100%30.11 "Hg7 mi
4:00 AM63 °FClear.No wind94%30.10 "Hg7 mi
3:00 AM63 °FClear.No wind100%30.11 "Hg8 mi
2:00 AM64 °FClear.No wind94%30.11 "Hg8 mi
1:00 AM64 °FClear.No wind100%30.12 "Hg10 mi
12:00 AM66 °FClear.No wind94%30.12 "Hg10 mi
11:00 PM
Jul 21
68 °FClear.No wind88%30.12 "Hg15 mi
10:00 PM70 °FPassing clouds.No wind78%30.12 "Hg15 mi
Weather by CustomWeather, © 2014

See weather overviewHow to use our weather pages